Weather History for KCOF - June, 2013

Change the Weather History Date:

Monday, June 24, 2013

  Actual Average Record
Temperature  
Mean Temperature 82 °F -  
Max Temperature 85 °F 84 °F 89 °F (1998)
Min Temperature 78 °F 73 °F 69 °F (2001)
Cooling Degree Days 16    
Growing Degree Days 32 (Base 50)    
Moisture  
Dew Point 75 °F    
Average Humidity 81    
Maximum Humidity 90    
Minimum Humidity 70    
Precipitation  
Precipitation 0.00 in - - ()
Sea Level Pressure  
Sea Level Pressure 30.17 in    
Wind  
Wind Speed 8 mph (ESE)    
Max Wind Speed 13 mph    
Max Gust Speed -    
Visibility 10 miles    
Events      
Averages and records for this station are not official NWS values.
T = Trace of Precipitation, MM = Missing Value Source: NWS Daily Summary

Daily Weather History Graph

Daily Weather History Graph

Search for Another Location

Airport or City:

Trip Planner

Search our weather history database for the weather conditions in past years. The results will help you decide how hot, cold, wet, or windy it might be!

Date:

Astronomy

Jun. 24, 2013 Rise Set
Actual Time 6:26 AM EDT 8:22 PM EDT
Civil Twilight 6:00 AM EDT 8:49 PM EDT
Nautical Twilight 5:27 AM EDT 9:22 PM EDT
Astronomical Twilight 4:53 AM EDT 9:56 PM EDT
Moon 9:35 PM EDT (6/24) 7:44 AM EDT (6/24)
Length of Visible Light 14h 49m
Length of Day
13h 56m
Full, 98% of the Moon is Illuminated
Jun 24
Full
Jun 30
Last Quarter
Jul 8
New
Jul 15
First Quarter
Jul 22
Full

Hourly Weather History & Observations

Time (EDT) Temp. Heat Index Dew Point Humidity Pressure Visibility Wind Dir Wind Speed Gust Speed Precip Events Conditions
12:58 AM 79.0 °F - 74.7 °F 87% 30.17 in 10.0 mi SE 10.4 mph - N/A   Clear
1:58 AM 79.0 °F - 74.5 °F 86% 30.17 in 10.0 mi SE 9.2 mph - N/A   Clear
2:58 AM 78.4 °F - 74.7 °F 88% 30.17 in 10.0 mi SE 6.9 mph - N/A   Clear
3:58 AM 78.1 °F - 74.7 °F 89% 30.16 in 10.0 mi SE 6.9 mph - N/A   Clear
4:58 AM 78.1 °F - 74.8 °F 90% 30.16 in 10.0 mi ESE 6.9 mph - N/A   Clear
5:58 AM 78.1 °F - 74.7 °F 89% 30.16 in 10.0 mi ESE 8.1 mph - N/A   Clear
6:58 AM 78.3 °F - 75.2 °F 90% 30.17 in 10.0 mi ESE 5.8 mph - N/A   Clear
7:58 AM 80.4 °F 86.1 °F 75.7 °F 86% 30.19 in 10.0 mi ESE 4.6 mph - N/A   Clear
8:58 AM 81.7 °F 88.7 °F 76.1 °F 83% 30.21 in 10.0 mi East 6.9 mph - N/A   Clear
9:58 AM 83.1 °F 89.5 °F 73.6 °F 73% 30.22 in 10.0 mi SE 5.8 mph - N/A   Clear
10:58 AM 83.7 °F 90.7 °F 74.3 °F 73% 30.22 in 10.0 mi East 4.6 mph - N/A   Clear
11:58 AM 84.4 °F 92.0 °F 74.5 °F 72% 30.22 in 10.0 mi East 4.6 mph - N/A   Clear
12:58 PM 84.7 °F 93.2 °F 75.2 °F 73% 30.22 in 10.0 mi East 6.9 mph - N/A   Clear
1:58 PM 84.6 °F 93.2 °F 75.4 °F 74% 30.19 in 10.0 mi East 8.1 mph - N/A   Partly Cloudy
2:58 PM 85.1 °F 93.3 °F 74.7 °F 71% 30.17 in 10.0 mi SE 11.5 mph - N/A   Clear
3:58 PM 85.1 °F 92.9 °F 74.5 °F 70% 30.17 in 10.0 mi ESE 12.7 mph - N/A   Clear
4:58 PM 84.6 °F 92.4 °F 74.8 °F 72% 30.16 in 10.0 mi ESE 10.4 mph - N/A   Clear
5:58 PM 84.6 °F 93.2 °F 75.6 °F 74% 30.14 in 10.0 mi ESE 10.4 mph - N/A   Clear
6:58 PM 82.8 °F 90.1 °F 75.4 °F 78% 30.12 in 10.0 mi East 10.4 mph - N/A   Clear
7:58 PM 81.5 °F 87.8 °F 75.2 °F 81% 30.14 in 10.0 mi ESE 9.2 mph - N/A   Clear
8:58 PM 80.8 °F 86.1 °F 74.5 °F 81% 30.14 in 10.0 mi ESE 11.5 mph - N/A   Clear
9:58 PM 80.4 °F 85.6 °F 74.8 °F 83% 30.16 in 10.0 mi ESE 9.2 mph - N/A   Clear
10:58 PM 80.2 °F 85.4 °F 75.0 °F 84% 30.17 in 10.0 mi ESE 8.1 mph - N/A   Clear
11:58 PM 79.7 °F - 75.0 °F 86% 30.19 in 10.0 mi ESE 6.9 mph - N/A   Clear